SCP
0 0 0 0 0 0 0 0 0 0 0 0 0 0 0 0 0 0 0 0 0 0 0 0 0 0 0 1 3 4 4 2 1 0 0 0 0 0 0 0 0 0 0 0
0 0 0 0 0 0 0 0 0 0 0 0 0 0 0 0 0 0 0 0 0 0 0 0 0 0 0 1 2 3 3 2 1 0 0 0 0 0 0 0 0 0 0 0
0 0 0 0 0 0 0 0 0 0 0 0 0 0 0 0 0 0 0 0 0 0 0 0 0 0 0 0 1 3 3 2 1 0 0 0 0 0 0 0 0 0 0 0
0 0 0 0 0 0 0 0 0 0 0 0 0 0 0 0 0 0 0 0 0 0 0 0 0 0 0 0 1 2 2 1 0 0 0 0 0 0 0 0 0 0 0 0
0 0 0 0 0 0 0 0 0 0 0 0 0 0 0 0 0 0 0 0 0 0 0 0 0 0 0 0 1 1 1 1 0 0 0 0 0 0 0 0 0 0 0 0
0 0 0 0 0 0 0 0 0 0 0 0 0 0 0 0 0 0 0 0 0 0 0 0 0 0 0 0 1 1 0 0 0 0 0 0 0 0 0 0 0 0 0 0
0 0 0 0 0 0 0 0 0 0 0 0 0 0 0 0 0 0 0 0 0 0 0 0 0 0 0 0 0 0 0 0 0 0 0 0 0 0 0 0 0 0 0 0
0 0 0 0 0 0 0 0 0 0 0 0 0 0 0 0 0 0 0 0 0 0 0 0 0 0 0 0 0 0 0 0 0 0 0 0 0 0 0 0 0 0 0 0
0 0 0 0 0 0 0 0 0 0 0 0 0 0 0 0 0 0 0 0 0 0 0 0 0 0 0 0 0 0 0 0 0 0 0 0 0 0 0 0 0 0 0 0
0 0 0 0 0 0 0 0 0 0 0 0 0 0 0 0 0 0 0 0 0 0 0 0 0 0 0 0 0 0 0 0 0 0 0 0 0 0 0 0 0 0 0 0
0 0 0 0 0 0 0 0 0 0 0 0 0 0 0 0 0 0 0 0 0 0 0 0 0 0 0 0 0 0 0 0 0 0 0 0 0 0 0 0 0 0 0 0
0 0 0 0 0 0 0 0 0 0 0 0 0 0 0 0 0 0 0 0 0 0 0 0 0 0 0 0 0 0 0 0 0 0 0 0 0 0 0 0 0 0 0 0
0 0 0 0 0 0 0 0 0 0 0 0 0 0 0 0 0 0 0 0 0 0 0 0 0 0 0 0 0 0 0 0 0 0 0 0 0 0 0 0 0 0 0 0
0 0 0 0 0 0 0 0 0 0 0 0 0 0 0 0 0 0 0 0 0 0 0 0 0 0 0 0 0 0 0 0 0 0 0 0 0 0 0 0 0 0 0 0
0 0 0 0 0 0 0 0 0 0 0 0 0 0 0 0 0 0 0 0 0 0 0 0 0 0 0 0 0 0 0 0 0 0 0 0 0 0 0 0 0 0 0 0
0 0 0 0 0 0 0 0 0 0 0 0 0 0 0 0 0 0 0 0 0 0 0 0 0 0 0 0 0 0 0 0 0 0 0 0 0 0 0 0 0 0 0 0
0 0 0 0 0 0 0 0 0 0 0 0 0 0 0 0 0 0 0 0 0 0 0 0 0 0 0 0 0 0 0 0 0 0 0 0 0 0 0 0 0 0 0 0
0 0 0 0 0 0 0 0 0 0 0 0 0 0 0 0 0 0 0 0 0 0 0 0 0 0 0 0 0 0 0 0 0 0 0 0 0 0 0 0 0 0 0 0
0 0 0 0 0 0 0 0 0 0 0 0 0 0 0 0 0 0 0 0 0 0 0 0 0 0 0 0 0 0 0 0 0 0 0 0 0 0 0 0 0 0 0 0
0 0 0 0 0 0 0 0 0 0 0 0 0 0 0 0 0 0 0 0 0 0 0 0 0 0 0 0 0 0 0 0 0 0 0 0 0 0 0 0 0 0 0 0
0 0 0 0 0 0 0 0 0 0 0 0 0 0 0 0 0 0 0 0 0 0 0 0 0 0 0 0 0 0 0 0 0 0 0 0 0 0 0 0 0 0 0 0
0 0 0 0 0 0 0 0 0 0 0 0 0 0 0 0 0 0 0 0 0 0 0 0 0 0 0 0 0 0 0 0 0 0 0 0 0 0 0 0 0 0 0 0
0 0 0 0 0 0 0 0 0 0 0 0 0 0 0 0 0 0 0 0 0 0 0 0 0 0 0 0 0 0 0 0 0 0 0 0 0 0 0 0 0 0 0 0
0 0 0 0 0 0 0 0 0 0 0 0 0 0 0 0 0 0 0 0 0 0 0 0 0 0 0 0 0 0 0 0 0 0 0 0 0 0 0 0 0 0 0 0
0 0 0 0 0 0 0 0 0 0 0 0 0 0 0 0 0 0 0 0 0 0 0 0 0 0 0 0 0 0 0 0 0 0 0 0 0 0 0 0 0 0 0 0
0 0 0 0 0 0 0 0 0 0 0 0 0 0 0 0 0 0 0 0 0 0 0 0 0 0 0 0 0 0 0 0 0 0 0 0 0 0 0 0 0 0 0 0
0 0 0 0 0 0 0 0 0 0 0 0 0 0 0 0 0 0 0 0 0 0 0 0 0 0 0 0 0 0 0 0 0 0 0 0 0 0 0 0 0 0 0 0
Wind_Speed
4 4 2 3 4 3 3 4 5 5 5 5 6 6 6 6 7 7 8 9 9 8 7 7 7 6 6 5 4 4 3 2 2 1 1 1 1 2 2 2 2 3 3 3
3 2 2 4 5 5 4 4 4 4 4 4 6 5 6 7 7 8 9 9 9 9 8 8 7 7 6 5 4 3 3 3 3 2 1 1 1 1 1 1 1 2 3 3
4 3 3 4 3 2 1 1 0 2 4 7 7 8 7 7 7 7 8 9 9 9 8 7 7 6 6 5 4 3 3 3 3 2 2 1 1 1 1 1 1 2 2 3
2 3 3 3 1 1 1 1 1 2 5 6 7 8 5 3 5 7 9 9 8 8 8 7 7 6 6 5 3 3 3 3 3 3 3 2 1 1 1 1 2 2 2 2
1 1 5 2 1 1 1 2 1 3 6 7 8 5 2 4 6 7 7 7 7 7 7 7 7 7 6 5 4 4 3 3 3 3 3 3 2 2 2 1 1 1 2 2
1 2 5 3 2 3 1 3 2 3 5 6 7 4 4 7 8 8 7 7 7 7 6 6 7 6 5 5 5 5 5 4 4 3 3 3 3 2 2 1 2 2 2 2
2 3 6 3 3 1 1 4 4 3 4 3 3 4 7 8 8 7 7 7 7 6 6 6 6 6 5 5 5 6 5 5 4 3 3 3 2 2 1 1 1 2 2 2
2 3 6 1 2 2 3 3 3 3 3 4 6 7 7 7 8 8 8 8 7 6 7 6 6 5 6 7 7 6 5 5 5 4 3 3 2 2 1 1 1 2 2 2
5 5 1 1 1 1 1 3 3 4 4 5 6 7 7 7 7 7 7 7 6 6 7 7 6 5 6 7 6 6 5 5 5 4 3 3 2 2 1 1 2 2 2 2
3 4 2 2 2 2 2 3 4 4 4 4 6 7 7 7 7 6 6 6 6 6 7 7 7 6 6 7 6 5 5 5 4 4 4 3 2 2 2 2 2 2 2 2
4 4 4 2 2 3 3 3 4 5 4 5 6 7 7 6 7 6 7 6 6 6 7 8 7 7 7 6 5 5 5 5 4 4 3 3 3 3 3 3 4 4 3 3
5 3 3 5 3 3 3 4 4 5 5 5 5 6 6 6 6 6 7 7 7 7 7 7 7 7 7 6 5 5 5 5 4 3 3 3 3 4 5 5 7 8 7 6
2 2 3 4 3 2 3 4 4 4 5 6 5 5 6 6 6 6 7 7 7 7 7 7 7 7 7 6 6 5 5 5 4 4 3 3 3 3 4 5 6 6 7 7
1 1 2 2 3 4 4 4 4 4 4 5 5 5 5 6 6 7 7 7 7 7 7 7 7 7 7 6 6 5 5 6 5 4 3 3 3 3 3 4 4 4 5 7
2 2 3 4 4 4 3 3 4 5 5 5 4 5 5 6 7 8 7 7 7 7 7 7 7 7 7 6 6 5 5 4 4 3 3 3 3 3 3 4 4 4 4 4
3 3 2 3 4 4 4 4 4 6 5 6 6 6 6 6 7 7 7 6 6 8 8 8 8 7 6 6 6 5 4 7 6 4 3 3 3 3 3 4 4 4 4 4
1 3 3 4 5 5 5 4 5 6 6 6 7 7 6 6 7 7 7 6 6 7 8 8 8 8 7 6 5 4 4 5 8 5 4 4 4 4 4 4 4 4 4 5
3 3 3 4 5 6 6 5 5 5 6 6 6 5 5 6 7 8 8 7 7 7 7 7 7 7 7 6 5 4 4 4 4 4 4 4 4 4 4 4 4 5 5 5
3 3 4 4 4 4 5 6 6 5 6 5 5 6 6 6 6 7 7 7 7 8 7 7 11 8 6 7 7 3 3 4 4 4 4 6 5 4 3 4 4 4 4 4
3 3 4 4 4 4 5 5 5 5 5 5 5 6 6 6 6 6 6 6 5 6 7 8 8 6 6 7 7 3 3 4 4 4 4 4 4 4 4 4 4 4 4 4
4 4 4 4 5 4 5 5 5 6 6 5 5 6 7 7 6 5 5 7 6 6 7 10 6 6 6 6 7 3 3 4 4 4 4 4 4 4 4 4 4 4 4 4
4 4 4 4 5 5 5 4 4 5 5 5 5 6 6 7 6 6 5 5 7 11 7 5 5 8 9 7 3 3 4 4 4 4 4 4 4 4 4 4 4 4 4 4
4 4 4 4 5 5 5 4 4 5 5 5 5 6 6 6 5 5 6 5 5 10 7 5 9 12 11 5 3 4 4 4 4 4 4 4 4 4 4 4 4 4 4 4
4 4 4 4 3 4 5 5 5 4 5 5 5 5 5 5 5 4 5 10 12 12 6 9 13 13 11 4 4 4 4 4 4 4 4 4 4 4 4 4 4 4 4 4
4 4 3 3 3 4 5 6 5 5 5 5 5 5 4 3 4 5 5 6 10 10 6 9 12 12 7 4 4 4 4 4 5 4 4 4 4 4 4 4 4 4 4 4
3 4 4 4 4 4 4 4 4 4 5 5 5 5 4 4 5 5 5 5 7 9 7 5 5 7 5 4 5 5 5 5 6 5 4 4 4 5 4 4 5 4 4 4
3 3 3 3 3 3 3 3 4 5 5 5 6 5 5 5 5 5 5 5 5 5 5 5 4 4 4 4 5 5 5 5 5 5 4 4 4 4 5 5 5 5 4 4
Wind_Direction
257 278 273 287 296 295 240 232 234 264 274 315 328 325 331 337 341 349 351 352 350 348 347 346 348 349 348 343 344 346 349 349 341 318 287 229 204 201 201 199 203 199 197 200
279 287 290 296 305 290 276 272 264 290 292 326 326 335 338 338 341 344 342 342 343 343 343 343 341 340 341 337 335 339 339 337 343 353 342 306 239 211 201 200 201 199 206 202
283 320 345 298 297 282 273 342 213 260 300 330 331 330 325 323 333 334 333 335 336 337 334 333 330 327 325 324 327 336 335 336 344 346 344 324 294 239 225 215 198 208 219 213
295 12 258 248 39 59 136 59 23 335 330 327 319 311 302 315 337 335 334 333 333 332 332 331 329 328 324 323 327 331 331 333 340 341 333 333 317 268 249 234 219 222 227 229
167 253 274 291 10 22 258 281 21 335 329 337 335 325 322 5 353 332 326 327 327 327 326 329 331 331 331 329 333 332 329 327 328 328 323 318 305 286 260 246 254 246 239 231
152 218 251 274 318 309 136 279 347 345 333 342 352 346 312 338 337 330 331 331 330 331 332 332 330 333 337 334 336 328 320 316 313 311 303 296 288 283 275 249 248 256 264 244
194 231 264 284 306 5 138 279 324 323 323 329 308 271 296 318 323 325 326 327 329 329 330 328 328 334 333 331 325 318 318 313 310 305 294 285 286 289 283 270 258 250 259 264
172 215 260 2 79 147 250 314 323 318 318 308 298 303 310 316 321 327 329 330 332 330 327 327 332 336 330 325 321 321 320 316 308 304 297 299 286 284 271 255 246 247 253 266
198 217 257 134 190 269 322 305 308 310 312 311 307 308 314 316 318 322 324 325 327 325 323 327 332 332 320 316 320 321 321 316 311 308 299 292 275 270 262 240 242 252 251 261
264 271 270 271 305 335 323 303 306 307 307 308 303 306 309 312 318 321 321 321 323 324 324 325 328 326 312 311 317 316 312 310 309 310 306 297 283 267 255 248 248 251 252 257
264 285 314 295 287 314 324 327 329 326 317 310 307 306 307 308 312 313 316 319 320 318 317 316 319 318 318 317 314 312 309 307 308 307 304 305 298 282 270 247 240 247 244 240
237 244 238 271 294 316 318 318 319 322 320 318 309 302 306 305 306 309 311 315 314 313 312 312 314 314 315 312 309 307 310 312 309 305 304 306 308 311 302 288 282 275 268 261
251 289 263 276 302 319 308 308 315 312 306 310 311 305 306 306 308 309 310 312 311 310 309 308 309 308 310 310 310 304 296 301 300 300 299 299 300 305 312 314 302 292 283 278
294 333 298 294 295 309 309 313 316 313 309 307 307 310 308 307 308 309 309 309 309 309 308 306 305 304 306 308 307 305 299 298 300 292 289 289 291 291 290 294 302 302 295 289
295 279 269 290 306 318 323 328 326 320 319 318 314 311 311 310 309 309 310 311 314 313 312 312 309 308 311 310 310 306 303 300 295 290 288 286 287 287 283 281 282 287 292 290
304 306 299 300 305 317 326 323 313 309 313 313 313 311 309 306 305 307 311 314 314 312 313 312 309 308 311 311 311 307 302 308 311 303 297 294 291 288 286 282 279 278 280 285
315 308 307 307 305 306 301 294 292 297 303 304 305 310 312 312 312 312 313 313 306 301 304 305 306 309 310 308 306 305 303 305 312 310 301 297 292 287 283 279 278 279 278 279
239 258 262 270 282 290 295 297 294 296 296 299 305 307 307 308 306 308 311 315 314 310 307 307 308 309 308 309 305 298 296 297 298 297 298 295 292 287 285 282 280 283 290 291
281 280 284 283 283 283 287 290 292 291 294 299 301 299 297 295 295 300 308 314 315 313 313 312 315 319 312 309 310 298 296 296 297 298 296 297 303 299 293 292 291 293 293 293
297 292 292 294 295 288 288 292 294 294 296 297 298 300 302 300 300 303 304 299 291 290 300 309 314 314 310 305 312 302 297 296 296 297 298 293 293 294 295 295 296 297 298 296
297 296 295 296 298 295 291 292 294 297 302 299 295 296 298 301 303 302 303 304 308 309 308 315 321 314 310 314 318 310 304 300 298 296 296 296 294 294 295 296 297 297 298 298
289 289 289 292 296 299 300 296 292 296 301 301 298 298 302 304 306 301 287 287 303 315 319 314 314 314 319 323 318 313 308 303 298 296 293 292 291 291 292 294 293 294 294 292
283 282 286 290 291 294 300 298 294 294 296 297 299 301 300 299 302 304 305 307 309 314 319 310 316 322 327 332 325 318 312 305 300 297 296 294 292 291 290 292 291 292 292 289
287 289 290 292 295 301 305 306 302 297 293 291 292 295 298 302 300 289 289 306 315 318 318 316 324 327 332 338 328 321 315 309 302 298 295 295 295 293 290 291 291 292 291 287
288 287 290 301 301 297 298 306 307 305 306 304 304 303 298 290 290 297 300 302 311 319 318 319 325 328 333 326 322 317 313 308 306 304 298 299 296 293 291 290 288 289 289 283
291 289 286 281 283 291 299 304 304 305 308 309 308 307 306 300 295 295 299 302 306 315 318 313 315 319 319 317 315 313 311 312 315 315 311 305 301 297 295 293 291 289 287 281
294 293 295 296 295 297 298 297 298 300 302 301 302 305 307 309 308 307 306 307 308 308 307 307 307 308 309 311 310 310 308 307 305 302 302 299 296 294 294 292 289 287 284 278